Location: Table Mountain
(47.2500°N, 120.5778°W)
Time: 12:28:51
(UTC-07:00)

Vanguard 2 - All Passes

Search period start: 19 April 2018 00:00
Search period end: 29 April 2018 00:00
Orbit: 553 x 2939 km, 32.9° (Epoch: 18 April)

Date Brightness Start Highest point End Pass type
(mag) Time Alt. Az. Time Alt. Az. Time Alt. Az.
19 Apr - 00:45:22 10° SSW 00:48:06 13° S 00:50:27 10° SE night (unlit)
19 Apr - 02:53:35 10° SW 02:55:34 13° S 02:57:26 10° SSE night (unlit)
19 Apr - 22:56:55 10° S 22:57:58 10° SSE 22:58:58 10° SSE visible
20 Apr - 01:02:27 10° SSW 01:05:55 15° S 01:08:46 10° SE night (unlit)
20 Apr - 03:11:45 10° SW 03:13:18 12° SSW 03:14:45 10° S night (unlit)
20 Apr - 23:12:02 10° SSW 23:15:51 14° SSE 23:18:59 10° SE visible
21 Apr - 01:19:56 10° SW 01:23:43 17° S 01:26:47 10° SE night (unlit)
21 Apr - 23:28:41 10° SSW 23:33:43 17° S 23:37:36 10° SE visible
22 Apr - 01:37:39 10° SW 01:41:29 17° S 01:44:34 10° SSE night (unlit)
22 Apr - 21:38:45 10° S 21:43:11 14° SSE 21:46:51 10° SE visible
22 Apr - 23:45:51 10° SW 23:51:34 20° S 23:55:49 10° SE visible
23 Apr - 01:55:35 10° SW 01:59:12 16° SSW 02:02:10 10° SSE night (unlit)
23 Apr - 21:54:41 10° SSW 22:01:05 18° SSE 22:05:57 10° SE visible
24 Apr - 00:03:18 10° SW 00:09:25 22° S 00:13:49 10° SE visible
24 Apr - 02:13:46 10° SW 02:16:52 15° SSW 02:19:31 10° SSE night (unlit)
24 Apr - 20:06:38 10° S 20:10:02 11° SSE 20:13:06 10° SE daylight
24 Apr - 22:11:23 10° SSW 22:18:59 22° S 22:24:26 10° ESE visible
25 Apr - 00:20:59 10° SW 00:27:12 23° S 00:31:39 10° SE visible
25 Apr - 02:32:20 10° SW 02:34:30 12° SSW 02:36:25 10° S night (unlit)
25 Apr - 20:21:02 10° S 20:27:55 16° SSE 20:33:25 10° ESE daylight
25 Apr - 22:28:31 10° SW 22:36:51 25° S 22:42:38 10° ESE visible
26 Apr - 00:38:51 10° WSW 00:44:58 23° SSW 00:49:22 10° SE visible
26 Apr - 20:36:59 10° SSW 20:45:48 21° SSE 20:52:23 10° ESE visible
26 Apr - 22:45:56 10° SW 22:54:43 28° S 23:00:38 10° ESE visible
27 Apr - 00:56:51 10° WSW 01:02:40 22° SSW 01:06:55 10° SSE visible
27 Apr - 18:48:56 10° S 18:54:18 13° SSE 18:59:02 10° SE daylight
27 Apr - 20:53:36 10° SSW 21:03:42 25° SSE 21:10:52 10° ESE visible
27 Apr - 23:03:34 10° WSW 23:12:32 30° S 23:18:31 10° SE visible
28 Apr - 01:15:02 10° WSW 01:20:18 19° SSW 01:24:15 10° SSE visible
28 Apr - 19:03:24 10° S 19:12:08 18° SSE 19:19:12 10° ESE daylight
28 Apr - 21:10:38 10° SW 21:21:35 30° S 21:29:05 10° ESE visible
28 Apr - 23:21:22 10° WSW 23:30:21 30° S 23:36:17 10° SE visible
